Wetterdaten: aktuell Freitag, 08.05.2026 18:09
Datum Zeit Temp. A. Feuchte A. Luftdruck Regen Wind Richtung Richtung Taupunkt Windchill
08.05.2026 18:09 19,3 °C 20 % 1009,1 hPa 0,0 l/m² 1,9 km/h (1 Bft) O±67.5° 95 ° -4,2 °C 19,3 °C
08.05.2026 18:07 19,3 °C 20 % 1009,1 hPa 0,0 l/m² 5,3 km/h (1 Bft) N 350 ° -4,2 °C 19,3 °C
08.05.2026 18:05 19,1 °C 20 % 1009,1 hPa 0,0 l/m² 5,3 km/h (1 Bft) N 350 ° -4,4 °C 19,1 °C
08.05.2026 18:03 19,4 °C 20 % 1009,1 hPa 0,0 l/m² 0,6 km/h (0 Bft) N 350 ° -4,1 °C 19,4 °C
08.05.2026 18:01 19,4 °C 20 % 1009,1 hPa 0,0 l/m² 5,4 km/h (1 Bft) N-NW 340 ° -4,1 °C 19,4 °C
08.05.2026 17:59 19,3 °C 20 % 1009,1 hPa 0,0 l/m² 1,2 km/h (1 Bft) NO±67.5° 45 ° -4,2 °C 19,3 °C
08.05.2026 17:57 19,5 °C 20 % 1009,1 hPa 0,0 l/m² 1,2 km/h (1 Bft) NO±67.5° 45 ° -4,0 °C 19,5 °C
08.05.2026 17:55 19,5 °C 20 % 1009,1 hPa 0,0 l/m² 7,5 km/h (2 Bft) O-SO±67.5° 120 ° -4,0 °C 19,0 °C
08.05.2026 17:53 19,5 °C 20 % 1009,1 hPa 0,0 l/m² 6,7 km/h (2 Bft) O±45° 80 ° -4,0 °C 19,4 °C
08.05.2026 17:51 19,4 °C 20 % 1009,1 hPa 0,0 l/m² 6,7 km/h (2 Bft) O±45° 80 ° -4,1 °C 19,3 °C
08.05.2026 17:49 19,4 °C 20 % 1009,1 hPa 0,0 l/m² 6,7 km/h (2 Bft) O±45° 80 ° -4,1 °C 19,3 °C
08.05.2026 17:47 19,4 °C 20 % 1009,1 hPa 0,0 l/m² 6,8 km/h (2 Bft) O-SO±22.5° 115 ° -4,1 °C 19,2 °C
08.05.2026 17:45 19,4 °C 20 % 1009,1 hPa 0,0 l/m² 5,4 km/h (1 Bft) N-NW 345 ° -4,1 °C 19,4 °C
08.05.2026 17:43 19,4 °C 20 % 1009,1 hPa 0,0 l/m² 5,4 km/h (1 Bft) N-NW 345 ° -4,1 °C 19,4 °C
08.05.2026 17:41 19,4 °C 20 % 1009,1 hPa 0,0 l/m² 3,2 km/h (1 Bft) NW±45° 305 ° -4,1 °C 19,4 °C
08.05.2026 17:39 19,4 °C 20 % 1009,1 hPa 0,0 l/m² 2,3 km/h (1 Bft) NW 325 ° -4,1 °C 19,4 °C
08.05.2026 17:37 19,4 °C 20 % 1009,1 hPa 0,0 l/m² 0,9 km/h (0 Bft) NW 325 ° -4,1 °C 19,4 °C
08.05.2026 17:34 19,4 °C 20 % 1009,1 hPa 0,0 l/m² 0,9 km/h (0 Bft) NW 325 ° -4,1 °C 19,4 °C
08.05.2026 17:32 19,4 °C 20 % 1009,1 hPa 0,0 l/m² 5,2 km/h (1 Bft) NW 315 ° -4,1 °C 19,4 °C
08.05.2026 17:30 19,4 °C 20 % 1009,1 hPa 0,0 l/m² 2,0 km/h (1 Bft) NW±45° 320 ° -4,1 °C 19,4 °C
08.05.2026 17:29 19,4 °C 20 % 1009,1 hPa 0,0 l/m² 2,0 km/h (1 Bft) NW±45° 320 ° -4,1 °C 19,4 °C
08.05.2026 17:27 19,4 °C 20 % 1009,1 hPa 0,0 l/m² 3,6 km/h (1 Bft) N-NW 340 ° -4,1 °C 19,4 °C
08.05.2026 17:25 19,3 °C 20 % 1009,1 hPa 0,0 l/m² 3,7 km/h (1 Bft) N-NW 340 ° -4,2 °C 19,3 °C
08.05.2026 17:23 19,3 °C 20 % 1009,1 hPa 0,0 l/m² 4,2 km/h (1 Bft) N-NW 340 ° -4,2 °C 19,3 °C
08.05.2026 17:21 19,2 °C 20 % 1009,1 hPa 0,0 l/m² 4,2 km/h (1 Bft) N-NW 340 ° -4,3 °C 19,2 °C
08.05.2026 17:19 19,3 °C 20 % 1009,1 hPa 0,0 l/m² 5,4 km/h (1 Bft) N-NW±22.5° 340 ° -4,2 °C 19,3 °C
08.05.2026 17:17 19,3 °C 20 % 1009,1 hPa 0,0 l/m² 1,0 km/h (0 Bft) NO±45° 40 ° -4,2 °C 19,3 °C
08.05.2026 17:15 19,3 °C 20 % 1009,1 hPa 0,0 l/m² 1,0 km/h (0 Bft) NO±45° 40 ° -4,2 °C 19,3 °C
08.05.2026 17:13 19,3 °C 20 % 1009,1 hPa 0,0 l/m² 2,8 km/h (1 Bft) O±22.5° 80 ° -4,2 °C 19,3 °C
08.05.2026 17:11 19,3 °C 20 % 1009,1 hPa 0,0 l/m² 5,4 km/h (1 Bft) N±22.5° 5 ° -4,2 °C 19,3 °C
08.05.2026 17:09 19,2 °C 20 % 1009,1 hPa 0,0 l/m² 5,0 km/h (1 Bft) N±45° 5 ° -4,3 °C 19,2 °C
08.05.2026 17:07 19,2 °C 20 % 1009,1 hPa 0,0 l/m² 5,0 km/h (1 Bft) N±45° 5 ° -4,3 °C 19,2 °C
08.05.2026 17:05 19,2 °C 20 % 1009,1 hPa 0,0 l/m² 4,4 km/h (1 Bft) N±22.5° 360 ° -4,3 °C 19,2 °C
08.05.2026 17:03 19,1 °C 20 % 1009,1 hPa 0,0 l/m² 4,2 km/h (1 Bft) N-NW 345 ° -4,4 °C 19,1 °C
08.05.2026 17:01 19,1 °C 20 % 1009,1 hPa 0,0 l/m² 1,0 km/h (0 Bft) N-NW 345 ° -4,4 °C 19,1 °C
08.05.2026 16:59 19,1 °C 20 % 1009,1 hPa 0,0 l/m² 1,0 km/h (0 Bft) N-NW 345 ° -4,4 °C 19,1 °C
08.05.2026 16:57 19,0 °C 20 % 1009,1 hPa 0,0 l/m² 9,3 km/h (2 Bft) N±22.5° 355 ° -4,5 °C 17,8 °C
08.05.2026 16:55 19,1 °C 20 % 1009,1 hPa 0,0 l/m² 8,9 km/h (2 Bft) N±67.5° 5 ° -4,4 °C 18,0 °C
08.05.2026 16:53 19,1 °C 20 % 1009,1 hPa 0,0 l/m² 8,9 km/h (2 Bft) N±67.5° 5 ° -4,4 °C 18,0 °C
08.05.2026 16:51 19,2 °C 20 % 1009,1 hPa 0,0 l/m² 10,5 km/h (2 Bft) N-NW±22.5° 335 ° -4,3 °C 17,6 °C
08.05.2026 16:48 19,4 °C 20 % 1009,1 hPa 0,0 l/m² 3,4 km/h (1 Bft) N±45° 355 ° -4,1 °C 19,4 °C
_ Min-Zeit 06:29 15:17 17:53 - 00:07 - - 15:17 06:29
Minimum _ 7,0 °C 20 % 1009,1 hPa - 0,0 km/h (0 Bft) - - -4,8 °C 7,0 °C
_ Max-Zeit 17:53 06:57 08:51 00:01 11:15 - - 00:01 17:57
Maximum _ 19,5 °C 88 % 1012,5 hPa 0,0 l/m² 10,9 km/h
O-NO (2 Bft)
- - 7,3 °C 19,5 °C
Durchschnitt _ 12,9 °C 59 % 1010,6 hPa #0,0 l/m² 2,1 km/h (1 Bft) N - 3,2 °C 12,8 °C